Location: Haliburton Scout Reserve
(45.0900°N, 78.3200°W)
Time: 11:23:53
(UTC-04:00)

S-56A Canister/Altair - Pass Details

Date: 15 February 2023
Orbit: 638 x 2493 km, 38.9° (Epoch: 26 March)

Event Time Altitude Azimuth Distance (km) Brightness Sun altitude
Rises 06:06:45 0° 212° (SSW) 4,101 11.0 -12.6°
Reaches altitude 10° 06:10:54 10° 195° (SSW) 2,790 10.3 -11.8°
Maximum altitude 06:14:54 17° 156° (SSE) 2,020 10.1 -11.1°
Drops below altitude 10° 06:18:16 10° 115° (ESE) 2,273 11.3 -10.5°
Sets 06:21:11 0° 94° (E) 3,051 12.9 -10.0°
